Wetbulb
57.05 53.84 50.93 51.17 43.91 41.26 37.87 38.76 44.39 45.73 46.62 47.57 50.71 51.76 51.37 53.13 50.90 45.05 61.73 66.39 67.36 67.12 68.55 69.76 70.58 71.70 70.64 69.09 69.50 69.84 70.03 69.71 70.04 69.23 68.89 68.41 68.16 68.58 68.83 68.81 69.72 70.05 69.96 69.62 68.74 69.00 68.50 67.92 68.29
54.58 56.04 52.01 45.67 39.75 35.79 37.35 40.13 44.22 45.24 49.11 51.02 51.53 50.99 52.30 50.96 57.65 61.62 63.29 67.14 67.39 67.72 68.13 69.15 69.84 71.11 70.79 69.19 69.66 69.72 69.88 69.47 68.99 68.97 68.38 68.46 67.92 67.98 67.82 67.98 68.05 67.49 67.36 68.15 68.09 68.26 67.91 68.04 68.66
54.39 53.79 47.78 42.54 37.41 35.94 36.85 40.65 43.97 46.99 48.32 48.95 47.92 51.99 52.40 53.49 58.57 61.10 65.99 67.29 67.32 66.88 67.51 68.41 69.75 71.11 70.77 69.89 69.75 69.60 69.74 69.00 68.18 69.01 68.32 68.80 68.44 68.06 67.72 67.79 68.40 67.70 67.26 66.99 67.65 67.63 67.52 67.54 67.55
50.97 48.58 45.98 40.54 38.36 40.80 40.52 44.34 47.12 46.00 46.80 50.48 50.30 50.05 54.05 59.31 60.15 64.27 67.32 67.09 66.11 66.38 66.71 68.27 70.05 71.23 70.67 69.90 69.72 69.38 69.39 68.86 68.84 68.35 68.16 68.97 69.11 69.12 68.15 68.56 68.54 67.70 66.88 66.80 66.67 66.78 66.43 66.03 66.52
48.45 44.67 39.99 37.32 39.27 40.45 41.78 45.27 46.17 45.65 44.94 45.42 48.52 48.20 53.69 59.90 63.35 66.88 66.51 66.45 65.40 65.57 66.41 68.00 69.52 70.53 70.26 69.91 69.75 69.21 69.03 68.55 67.94 68.62 68.37 68.32 68.11 68.07 68.45 68.17 67.30 66.33 66.55 66.08 65.31 65.16 64.95 64.89 65.13
43.70 43.20 36.70 35.32 37.28 40.39 42.50 45.53 45.72 44.47 45.93 46.39 49.75 51.13 53.11 60.63 64.45 65.39 65.67 65.38 66.01 65.64 66.70 67.69 66.37 67.93 69.33 69.45 69.28 68.88 68.90 68.61 67.68 67.87 68.03 68.10 67.60 67.57 67.84 67.65 67.15 66.05 66.08 65.75 65.04 64.34 63.91 64.29 64.66
42.68 39.74 36.19 36.32 38.78 39.90 44.32 46.18 44.66 44.90 45.13 45.19 53.07 50.73 53.54 58.39 61.75 65.32 65.12 65.32 65.46 66.27 66.33 66.09 66.27 66.30 66.50 67.48 67.67 67.93 68.19 68.19 67.75 67.71 67.32 67.94 67.58 67.65 67.89 67.27 66.34 65.27 65.24 65.35 64.58 63.79 63.42 63.64 63.19
44.57 42.18 36.96 37.77 38.22 39.71 43.45 44.73 45.79 46.69 44.83 49.31 54.94 50.85 52.36 58.90 61.70 64.96 64.99 64.45 64.53 65.45 65.76 64.95 64.95 66.06 66.31 65.87 64.82 65.57 66.27 66.78 66.42 65.23 64.48 64.11 64.03 64.39 64.79 64.32 65.78 64.59 64.60 64.76 64.05 63.11 62.47 62.60 62.48
45.28 38.76 36.10 39.39 39.59 41.46 43.87 43.54 44.24 46.20 46.75 47.31 49.93 54.10 56.58 61.74 62.41 63.81 63.75 62.88 63.43 64.21 64.75 64.51 64.17 64.56 65.43 65.02 63.30 63.30 63.77 63.90 63.50 62.15 61.24 59.95 59.70 60.20 61.61 62.64 64.67 65.05 64.32 64.01 63.21 62.10 61.27 60.10 60.13
41.18 37.94 39.84 43.31 42.24 42.85 43.87 44.41 44.84 44.95 45.31 46.12 53.28 58.21 61.10 61.06 61.14 62.12 61.99 61.80 62.17 62.19 62.99 63.97 63.48 63.50 64.51 66.33 63.34 62.82 62.76 61.64 61.18 59.91 58.91 59.10 58.78 59.43 59.98 59.38 61.79 62.85 62.54 63.02 62.38 61.60 60.83 58.40 55.02
42.49 39.91 41.39 42.89 44.53 45.43 44.85 43.89 43.93 43.84 41.03 46.67 53.18 57.64 59.65 59.65 59.29 59.67 60.47 61.64 61.82 62.80 63.21 63.48 63.35 63.22 63.55 64.26 62.91 61.94 60.98 60.08 59.81 59.37 59.02 58.63 58.51 58.10 57.52 56.97 56.57 56.37 56.45 56.65 56.98 55.94 56.04 55.31 54.62
39.56 44.34 41.92 44.77 45.46 45.26 44.08 44.64 42.50 43.11 43.74 48.33 57.58 60.01 59.86 59.55 59.75 59.56 59.55 60.84 61.05 62.71 63.12 63.46 63.46 62.92 63.18 63.44 63.08 62.15 61.11 59.66 58.79 58.72 59.05 57.62 57.07 56.47 55.89 55.83 55.55 55.20 55.14 54.13 53.92 54.27 54.58 54.52 54.84
40.96 41.26 42.22 43.56 44.47 43.59 45.11 42.66 42.48 42.78 43.98 49.14 58.71 59.56 59.49 59.86 60.15 59.67 60.09 60.59 61.32 61.24 63.07 64.24 63.82 62.77 62.94 62.61 62.96 62.38 61.44 60.62 59.61 58.28 58.36 58.24 57.27 56.16 55.86 55.41 55.11 54.66 54.75 54.31 53.64 53.52 53.91 53.65 54.12
43.92 42.36 40.91 42.05 42.62 42.89 42.86 40.63 43.57 43.82 45.17 50.88 57.84 58.01 58.53 59.51 59.69 59.09 59.89 59.81 60.51 61.82 62.51 64.53 64.55 64.57 63.85 62.74 62.35 62.66 62.06 61.56 60.60 59.12 58.15 58.55 58.04 57.00 56.14 55.46 55.17 54.41 54.55 54.20 53.76 53.52 53.11 52.73 52.79
43.99 40.74 39.40 40.06 41.31 40.79 42.15 40.12 42.31 43.50 45.55 48.90 55.22 57.24 57.71 58.71 58.48 60.20 61.13 60.72 60.65 61.50 61.89 63.20 64.80 64.93 63.89 63.65 62.96 63.08 62.70 62.07 61.06 60.07 58.57 58.02 58.44 57.56 56.73 55.66 55.09 54.86 54.55 53.69 53.09 52.67 52.26 51.72 51.79
41.15 38.31 35.07 40.42 41.66 41.59 40.84 37.81 41.56 43.95 43.89 46.49 48.26 50.24 54.85 56.96 57.97 59.37 60.46 61.30 61.05 61.17 61.53 61.93 64.12 64.80 64.66 64.06 63.58 63.62 64.18 63.42 62.65 60.87 59.18 57.92 57.85 58.02 56.88 56.35 56.09 55.09 53.70 52.90 52.09 51.46 50.62 50.43 50.19
36.08 30.91 32.38 36.69 41.15 40.69 39.43 37.29 39.90 41.86 42.60 42.31 43.64 45.65 48.43 51.61 53.61 57.93 59.71 60.89 61.63 62.09 62.10 61.97 62.82 63.50 64.57 64.67 64.67 63.92 63.08 63.02 62.93 62.17 60.73 58.31 57.48 57.79 57.33 56.82 55.83 54.75 53.13 51.91 51.39 50.06 49.87 48.84 48.68
32.55 32.16 33.31 34.90 38.35 37.91 36.54 37.67 40.75 39.42 39.65 41.16 40.16 39.69 40.54 42.18 46.63 53.19 57.62 59.87 61.67 62.52 62.64 62.64 63.02 62.98 63.22 64.39 64.55 64.03 63.66 62.69 62.90 62.23 61.52 59.13 58.16 57.15 56.99 56.05 55.17 53.98 52.11 50.94 50.11 49.49 48.68 48.53 48.59
37.61 36.13 34.40 35.39 38.76 37.23 36.43 37.14 38.90 38.89 37.83 38.54 38.07 38.07 39.12 40.63 44.13 44.56 49.88 57.06 57.49 61.14 62.19 62.22 62.15 62.59 62.67 62.49 62.97 62.88 62.58 63.14 62.09 62.38 61.86 60.48 58.52 56.92 56.61 55.81 54.58 53.28 52.41 51.28 49.87 48.86 48.54 47.33 49.34
35.82 34.32 33.61 35.56 37.32 35.75 33.87 35.96 38.87 37.68 38.85 39.18 39.27 39.02 39.90 40.64 41.87 42.80 44.39 47.25 55.29 58.76 61.61 62.06 62.17 62.32 62.61 62.83 62.42 62.96 62.88 63.05 63.13 62.39 61.53 61.12 59.73 58.24 57.41 55.83 54.58 53.02 51.18 50.16 49.66 48.35 46.19 47.48 49.37
34.90 33.81 33.71 35.15 36.26 35.02 33.47 32.65 34.53 37.34 38.07 39.48 40.18 42.15 42.39 42.46 42.48 43.23 43.06 43.46 48.10 55.69 59.79 61.44 62.20 62.46 62.66 62.72 61.50 58.69 59.15 60.43 60.99 61.04 61.23 60.60 60.27 59.31 57.75 55.76 54.45 52.54 52.85 52.59 51.52 49.85 48.77 47.06 45.54
31.96 37.73 36.82 35.67 33.33 29.76 32.33 24.66 30.89 34.23 36.33 37.21 40.52 41.86 42.71 41.65 41.36 42.54 42.91 42.30 44.00 50.99 54.88 59.80 62.05 62.41 62.50 62.35 60.99 60.51 60.20 59.38 60.25 60.03 61.34 61.66 60.54 59.78 58.78 57.65 56.79 55.41 54.32 52.87 52.44 51.02 50.05 49.59 46.98
34.79 37.84 36.71 35.36 31.74 30.03 28.18 26.27 30.52 33.54 34.98 37.82 39.40 40.40 42.09 42.84 40.91 41.95 42.90 41.94 41.12 44.66 47.75 50.64 54.98 58.67 61.33 61.74 61.53 60.59 59.96 60.10 58.03 57.79 58.30 58.79 60.87 60.26 58.97 58.04 57.20 55.96 55.01 54.64 53.55 51.07 49.83 50.23 50.46
37.82 35.23 33.45 31.58 30.03 24.88 28.98 28.60 29.10 33.05 36.80 37.75 37.83 39.06 39.58 38.64 38.73 39.18 41.00 42.52 42.95 44.56 44.64 44.90 44.65 45.87 50.34 59.17 61.19 60.42 60.02 57.92 57.99 59.57 59.92 60.03 60.56 60.88 60.26 58.45 57.72 56.88 55.69 54.65 54.02 53.15 51.59 50.92 50.76
34.52 31.41 23.24 23.39 22.97 22.77 28.48 26.77 32.91 35.45 36.80 36.88 37.90 37.58 36.15 37.07 38.76 40.12 41.42 41.67 43.92 45.41 46.78 47.40 46.75 45.07 43.96 44.71 51.77 58.74 59.49 58.49 59.38 59.99 60.24 59.56 59.23 58.47 59.80 59.22 57.92 57.07 56.75 55.67 54.47 52.98 52.52 51.23 50.34
33.36 32.91 25.93 19.55 19.66 23.00 27.27 24.48 31.53 37.45 38.52 38.05 37.82 36.79 37.87 38.59 39.44 40.33 41.33 43.08 45.24 45.96 46.33 47.15 47.21 46.65 44.43 42.71 43.76 51.28 57.01 59.05 58.68 58.50 58.39 58.91 59.41 59.09 59.38 58.49 57.80 57.14 56.46 55.94 54.82 53.90 52.43 50.28 49.61
33.17 30.11 34.37 26.00 17.47 21.64 25.04 28.64 35.32 36.85 36.67 34.24 35.72 36.26 37.38 38.63 39.24 40.52 41.84 43.09 44.19 46.12 46.62 47.12 47.13 47.44 47.20 46.40 45.22 47.71 51.08 54.86 56.96 57.41 56.32 58.34 57.88 55.34 56.49 56.21 55.68 55.19 54.61 53.74 52.76 50.63 49.31 47.61 46.90
34.93 37.56 29.84 26.35 17.19 17.04 23.21 24.69 28.95 33.22 35.56 36.00 35.60 37.09 37.61 37.73 39.26 40.02 41.09 41.99 42.98 44.79 46.44 46.72 46.90 47.23 47.17 47.77 48.68 49.31 50.16 51.35 52.58 53.01 53.07 54.19 52.82 53.03 52.91 52.68 52.38 51.24 50.72 50.32 49.56 47.82 46.18 45.11 44.87
32.23 31.57 31.54 31.71 27.09 21.74 18.04 24.51 32.11 35.56 37.30 35.67 36.48 36.00 36.80 38.38 39.37 39.56 40.16 41.41 42.43 43.14 45.07 45.65 46.37 46.56 46.20 46.45 46.24 47.23 47.84 49.27 50.19 50.74 51.82 51.44 50.54 50.95 50.52 49.63 48.73 48.08 47.84 46.90 46.39 45.29 44.35 43.83 43.06
35.78 34.23 34.58 27.00 23.62 24.21 24.29 26.64 34.86 34.94 36.15 36.76 37.19 36.76 36.50 37.11 38.60 39.29 39.77 40.06 40.53 41.89 44.08 44.85 45.31 46.01 46.49 46.38 45.97 46.15 46.60 47.15 47.75 49.58 49.96 49.97 49.36 48.64 47.93 46.94 45.87 45.44 45.03 45.20 44.40 43.08 43.04 42.31 40.80
MSLP
1014.32 1013.86 1014.03 1014.74 1016.79 1017.62 1017.41 1016.89 1016.24 1016.18 1016.22 1016.36 1016.46 1016.99 1018.15 1018.80 1019.16 1020.15 1019.49 1019.87 1019.98 1020.49 1020.88 1021.11 1021.20 1021.21 1021.32 1021.45 1021.65 1021.76 1021.74 1021.70 1021.64 1021.65 1021.67 1021.69 1021.70 1021.68 1021.65 1021.64 1021.63 1021.57 1021.58 1021.68 1021.83 1021.96 1022.05 1021.91 1021.91
1014.44 1014.08 1014.63 1016.20 1017.50 1018.15 1017.89 1016.89 1016.58 1016.03 1016.28 1016.49 1016.67 1017.39 1018.15 1019.02 1019.02 1019.68 1019.98 1020.14 1019.96 1020.53 1020.89 1021.18 1021.42 1021.49 1021.57 1021.73 1021.84 1021.98 1022.03 1022.01 1022.05 1021.96 1022.04 1022.02 1022.05 1022.01 1022.04 1022.07 1022.05 1022.08 1022.09 1022.17 1022.29 1022.39 1022.44 1022.33 1022.34
1014.35 1014.66 1016.02 1017.10 1018.05 1018.07 1017.55 1016.89 1016.61 1016.31 1016.26 1016.29 1017.21 1017.67 1018.32 1018.99 1019.21 1019.42 1019.55 1020.07 1020.12 1020.71 1021.09 1021.35 1021.47 1021.61 1021.84 1022.02 1022.10 1022.27 1022.40 1022.50 1022.38 1022.32 1022.37 1022.41 1022.46 1022.51 1022.53 1022.49 1022.50 1022.54 1022.52 1022.69 1022.85 1022.93 1022.91 1022.87 1022.84
1014.86 1015.58 1017.02 1017.63 1017.90 1017.24 1016.96 1016.65 1016.31 1016.38 1016.32 1016.45 1017.29 1018.34 1018.45 1018.50 1018.75 1018.97 1019.59 1019.95 1020.39 1020.74 1021.24 1021.46 1021.46 1021.63 1022.02 1022.22 1022.32 1022.44 1022.56 1022.72 1022.77 1022.76 1022.72 1022.70 1022.78 1022.88 1022.97 1022.98 1022.95 1023.06 1023.14 1023.26 1023.38 1023.42 1023.43 1023.44 1023.41
1015.76 1016.89 1017.78 1018.22 1017.61 1016.79 1016.46 1016.34 1016.04 1016.46 1016.67 1017.01 1017.20 1018.61 1018.82 1018.69 1018.69 1019.13 1019.68 1020.04 1020.47 1020.94 1021.39 1021.65 1021.80 1021.85 1022.05 1022.39 1022.54 1022.64 1022.71 1022.83 1022.97 1023.10 1023.12 1023.15 1023.23 1023.38 1023.45 1023.47 1023.53 1023.63 1023.80 1023.91 1023.92 1023.95 1023.97 1023.96 1023.94
1016.91 1017.61 1018.33 1018.47 1017.64 1016.75 1016.47 1016.20 1016.05 1016.29 1016.78 1017.32 1017.86 1018.55 1019.04 1018.85 1019.13 1019.46 1019.76 1020.31 1020.58 1020.94 1021.44 1021.88 1022.03 1022.13 1022.24 1022.45 1022.75 1022.88 1022.97 1023.05 1023.17 1023.32 1023.37 1023.57 1023.66 1023.63 1023.74 1023.94 1024.10 1024.17 1024.32 1024.40 1024.44 1024.51 1024.54 1024.52 1024.53
1017.12 1018.09 1018.27 1018.11 1017.57 1016.99 1016.25 1016.00 1016.08 1016.12 1016.64 1017.13 1017.63 1018.96 1019.37 1019.27 1019.37 1019.53 1019.93 1020.29 1020.84 1021.12 1021.38 1021.85 1022.11 1022.27 1022.45 1022.60 1022.83 1023.09 1023.27 1023.36 1023.48 1023.61 1023.75 1023.79 1023.90 1024.05 1024.16 1024.26 1024.37 1024.50 1024.65 1024.79 1024.84 1024.90 1024.98 1025.00 1024.98
1017.11 1018.01 1018.14 1017.70 1017.22 1016.56 1015.88 1016.03 1015.67 1015.81 1016.49 1016.70 1017.15 1018.46 1019.43 1019.08 1019.46 1019.83 1020.26 1020.65 1021.03 1021.27 1021.49 1021.85 1022.09 1022.28 1022.48 1022.86 1022.98 1023.17 1023.37 1023.61 1023.67 1023.81 1023.97 1024.09 1024.20 1024.26 1024.39 1024.52 1024.70 1024.83 1024.87 1025.01 1025.08 1025.05 1025.09 1025.21 1025.26
1016.88 1017.85 1017.81 1017.07 1016.82 1016.00 1015.72 1015.84 1015.84 1015.78 1016.22 1016.91 1017.25 1017.53 1017.57 1018.35 1019.35 1020.05 1020.60 1021.12 1021.29 1021.58 1021.59 1021.86 1022.18 1022.43 1022.56 1022.78 1023.10 1023.31 1023.46 1023.61 1023.82 1023.98 1024.16 1024.32 1024.44 1024.66 1024.75 1024.85 1024.96 1025.17 1025.34 1025.37 1025.32 1025.31 1025.40 1025.52 1025.65
1017.18 1017.61 1017.04 1016.04 1015.75 1015.35 1015.32 1015.39 1015.62 1016.06 1016.63 1017.31 1017.62 1017.57 1017.74 1018.44 1019.30 1019.76 1020.28 1020.85 1021.16 1021.53 1021.75 1021.74 1022.17 1022.51 1022.70 1022.86 1023.17 1023.41 1023.61 1023.86 1023.94 1024.03 1024.16 1024.43 1024.68 1024.67 1024.79 1025.02 1025.20 1025.37 1025.56 1025.61 1025.63 1025.71 1025.77 1025.85 1026.09
1016.88 1016.90 1016.41 1015.70 1015.37 1015.13 1015.06 1015.51 1015.57 1016.03 1016.85 1016.97 1017.41 1017.86 1018.31 1018.75 1019.35 1019.64 1020.07 1020.13 1020.55 1020.85 1021.47 1021.50 1021.83 1022.21 1022.56 1022.73 1023.14 1023.38 1023.68 1023.96 1024.18 1024.25 1024.40 1024.52 1024.71 1024.96 1025.14 1025.28 1025.48 1025.71 1025.85 1026.03 1026.07 1026.13 1026.14 1026.21 1026.28
1016.62 1016.20 1016.06 1015.65 1015.33 1015.06 1015.10 1015.21 1015.71 1015.87 1015.89 1015.92 1016.82 1017.18 1018.15 1018.75 1019.03 1019.43 1019.91 1020.10 1020.21 1020.53 1020.85 1021.01 1021.36 1021.75 1022.26 1022.60 1023.00 1023.17 1023.43 1023.72 1024.02 1024.16 1024.46 1024.79 1025.06 1025.25 1025.40 1025.49 1025.62 1025.82 1025.94 1026.13 1026.23 1026.37 1026.34 1026.34 1026.35
1016.46 1016.09 1015.88 1015.59 1015.39 1015.19 1015.23 1015.28 1015.59 1015.84 1015.68 1016.21 1017.08 1017.95 1018.21 1018.55 1018.82 1019.29 1019.53 1019.94 1020.06 1020.28 1020.48 1020.68 1021.08 1021.57 1021.82 1022.45 1022.69 1023.12 1023.36 1023.55 1023.75 1024.08 1024.29 1024.57 1024.93 1025.18 1025.35 1025.55 1025.69 1025.87 1025.96 1026.16 1026.33 1026.40 1026.49 1026.54 1026.45
1016.09 1016.15 1015.99 1015.62 1015.47 1015.48 1015.55 1015.61 1015.68 1015.85 1016.12 1016.85 1017.19 1017.96 1018.35 1018.42 1018.69 1019.08 1019.49 1019.60 1019.68 1019.87 1019.95 1020.27 1020.57 1020.93 1021.48 1021.96 1022.40 1022.71 1023.13 1023.40 1023.57 1023.75 1023.96 1024.23 1024.54 1024.84 1025.09 1025.34 1025.61 1025.87 1026.04 1026.09 1026.30 1026.41 1026.51 1026.63 1026.66
1016.24 1016.55 1016.20 1015.93 1015.65 1015.64 1015.68 1016.03 1015.80 1015.83 1016.48 1017.20 1017.67 1018.12 1018.37 1018.48 1018.79 1018.40 1018.46 1018.88 1019.10 1019.30 1019.53 1019.79 1020.07 1020.44 1020.96 1021.35 1021.77 1022.20 1022.49 1022.92 1023.36 1023.54 1023.74 1023.86 1024.25 1024.53 1024.87 1025.20 1025.41 1025.46 1025.63 1025.99 1026.22 1026.40 1026.54 1026.62 1026.69
1017.21 1016.92 1016.79 1016.09 1016.03 1015.93 1016.11 1016.08 1015.84 1016.06 1016.66 1017.50 1017.92 1018.22 1018.39 1018.30 1018.23 1018.45 1018.34 1018.59 1018.78 1018.99 1019.18 1019.32 1019.48 1020.07 1020.50 1020.89 1021.25 1021.59 1021.79 1022.16 1022.55 1023.06 1023.40 1023.60 1023.86 1024.17 1024.60 1024.93 1025.05 1025.37 1025.68 1025.81 1026.15 1026.37 1026.62 1026.81 1026.84
1017.00 1016.57 1016.76 1016.59 1016.33 1016.32 1016.56 1016.37 1015.93 1016.19 1016.85 1017.50 1017.83 1018.10 1018.05 1017.99 1018.04 1017.94 1017.84 1017.99 1018.23 1018.53 1018.92 1019.20 1019.34 1019.59 1020.05 1020.54 1020.86 1021.16 1021.45 1021.73 1021.97 1022.44 1022.82 1023.20 1023.35 1023.72 1024.28 1024.58 1024.86 1025.10 1025.63 1026.02 1026.16 1026.47 1026.60 1026.75 1026.91
1016.90 1016.89 1016.72 1016.74 1016.73 1016.76 1016.95 1016.69 1016.21 1016.60 1016.94 1017.13 1017.67 1017.89 1018.04 1017.65 1017.28 1017.08 1017.34 1017.39 1017.48 1017.80 1018.27 1018.77 1019.17 1019.34 1019.58 1019.99 1020.52 1020.91 1021.09 1021.28 1021.48 1021.78 1022.06 1022.44 1023.04 1023.40 1023.66 1024.05 1024.36 1024.83 1025.21 1025.55 1025.88 1026.17 1026.41 1026.59 1026.65
1016.43 1016.53 1016.69 1016.69 1016.80 1017.00 1017.10 1016.88 1016.67 1016.62 1016.99 1017.25 1017.49 1017.64 1017.35 1016.82 1015.98 1016.11 1016.43 1016.87 1017.24 1017.48 1017.70 1018.06 1018.67 1018.69 1019.31 1019.65 1020.18 1020.59 1020.79 1021.14 1021.35 1021.47 1021.66 1022.11 1022.38 1022.70 1023.16 1023.56 1023.96 1024.41 1024.98 1025.24 1025.58 1026.03 1026.27 1026.71 1026.82
1016.50 1016.67 1016.85 1017.35 1017.14 1017.45 1017.49 1017.24 1016.69 1016.74 1016.48 1016.34 1016.72 1016.64 1016.20 1016.03 1015.76 1015.72 1015.71 1016.12 1016.55 1016.70 1016.99 1017.34 1017.74 1018.31 1018.69 1019.27 1019.50 1019.89 1020.48 1020.76 1020.96 1021.09 1021.31 1021.63 1021.98 1022.42 1022.84 1023.31 1023.78 1024.27 1024.66 1024.97 1025.23 1025.41 1026.08 1026.17 1026.41
1016.61 1016.90 1017.08 1017.51 1017.59 1017.70 1017.99 1017.69 1016.88 1016.00 1015.76 1015.57 1015.61 1015.14 1015.02 1015.00 1015.28 1015.39 1015.39 1015.53 1015.89 1016.46 1016.42 1016.65 1016.96 1017.55 1018.01 1018.69 1019.48 1020.10 1020.40 1020.57 1020.86 1021.09 1021.24 1021.36 1021.63 1021.88 1022.46 1022.79 1023.33 1023.93 1024.46 1024.69 1024.74 1025.02 1025.47 1025.86 1026.26
1016.87 1016.30 1016.64 1017.40 1018.30 1018.37 1018.55 1017.88 1016.77 1015.94 1015.52 1015.28 1014.69 1014.53 1014.42 1014.33 1014.51 1014.97 1015.26 1015.33 1015.44 1015.58 1016.08 1016.30 1016.45 1017.02 1017.53 1018.22 1018.87 1019.23 1019.59 1019.73 1019.85 1020.28 1020.86 1020.96 1021.32 1021.64 1022.06 1022.46 1022.58 1022.92 1023.50 1023.96 1024.09 1024.34 1024.88 1025.43 1025.83
1016.54 1016.38 1017.05 1017.76 1018.59 1018.75 1019.01 1018.93 1016.78 1016.30 1015.37 1014.13 1013.58 1013.66 1013.60 1013.62 1014.23 1014.84 1014.93 1014.95 1015.23 1015.35 1016.11 1016.64 1016.82 1016.99 1017.32 1017.90 1018.21 1018.75 1019.17 1019.34 1019.60 1019.96 1020.34 1020.71 1020.80 1020.87 1021.32 1021.57 1022.07 1022.57 1022.86 1023.13 1023.56 1024.13 1024.35 1024.70 1024.97
1016.47 1017.02 1018.26 1018.98 1019.52 1019.48 1019.04 1019.20 1016.74 1015.75 1014.42 1013.51 1013.07 1013.17 1013.36 1013.99 1014.26 1014.68 1015.13 1015.39 1015.75 1015.77 1016.25 1016.82 1017.26 1017.39 1017.36 1017.49 1017.93 1018.29 1018.64 1019.11 1019.51 1019.79 1019.97 1020.26 1020.47 1020.49 1020.73 1021.03 1021.24 1021.67 1022.21 1022.61 1022.89 1023.14 1023.65 1023.86 1024.15
1016.17 1017.47 1019.49 1020.36 1020.38 1019.83 1019.04 1018.96 1016.04 1014.29 1013.28 1013.64 1013.28 1013.26 1013.66 1014.26 1014.79 1015.24 1015.68 1015.96 1016.14 1016.19 1016.56 1016.97 1017.15 1017.60 1017.72 1017.77 1017.87 1018.01 1018.10 1018.42 1018.71 1019.02 1019.12 1019.54 1019.83 1019.93 1020.08 1020.24 1020.75 1020.90 1021.04 1021.55 1022.19 1022.67 1023.04 1023.29 1023.77
1015.96 1016.51 1018.02 1019.77 1021.00 1020.57 1019.63 1018.03 1015.28 1013.19 1012.59 1013.02 1012.89 1013.53 1014.29 1014.96 1015.43 1015.51 1015.86 1016.33 1016.34 1016.55 1016.90 1017.13 1017.36 1017.42 1017.45 1017.73 1017.78 1017.76 1017.67 1017.89 1018.09 1018.32 1018.57 1018.89 1019.05 1019.34 1019.27 1019.66 1020.19 1020.47 1020.60 1020.84 1021.30 1021.89 1022.44 1022.85 1023.40
1015.77 1016.19 1017.02 1019.10 1020.88 1020.38 1018.63 1017.05 1014.87 1013.09 1012.87 1013.06 1013.30 1014.01 1014.67 1015.14 1015.64 1015.93 1015.99 1016.13 1016.64 1016.86 1016.95 1017.36 1017.47 1017.34 1017.29 1017.34 1017.41 1017.54 1017.58 1017.68 1017.81 1017.99 1018.33 1018.72 1018.64 1018.97 1019.22 1019.61 1020.03 1020.27 1020.56 1021.09 1021.36 1021.71 1022.20 1022.46 1023.13
1014.31 1015.30 1016.97 1018.36 1019.96 1020.48 1018.66 1017.20 1014.72 1013.31 1013.11 1013.19 1013.61 1014.17 1014.88 1015.39 1015.69 1015.80 1016.33 1016.90 1017.09 1016.85 1017.18 1017.37 1017.47 1017.47 1017.60 1017.50 1017.56 1017.57 1017.48 1017.61 1017.77 1018.02 1018.31 1018.52 1018.72 1019.01 1019.54 1019.82 1020.25 1020.53 1020.76 1020.91 1021.37 1021.96 1022.66 1022.74 1023.16
1014.67 1014.93 1015.87 1016.86 1018.03 1018.34 1017.98 1015.51 1013.02 1012.46 1012.22 1012.80 1012.94 1013.87 1014.53 1014.97 1015.27 1015.99 1016.50 1016.91 1017.09 1017.16 1017.40 1017.54 1017.66 1017.68 1017.77 1017.72 1017.78 1017.80 1017.84 1017.87 1017.90 1018.21 1018.46 1018.72 1018.90 1019.27 1019.70 1020.14 1020.57 1021.07 1021.48 1021.58 1021.95 1022.25 1022.76 1023.23 1023.59
1013.96 1014.13 1015.01 1016.21 1017.32 1017.57 1016.76 1013.48 1011.87 1011.78 1011.87 1012.09 1012.33 1013.19 1013.74 1014.43 1015.38 1016.32 1016.77 1017.10 1017.38 1017.54 1017.58 1017.69 1017.70 1017.88 1017.85 1017.95 1018.02 1018.13 1018.28 1018.44 1018.53 1018.55 1018.85 1019.22 1019.52 1019.79 1020.32 1020.60 1021.21 1021.61 1021.91 1022.31 1022.43 1022.87 1023.14 1023.48 1023.85
Wind_Speed
7 8 3 6 6 6 3 2 3 3 4 3 2 8 9 3 3 3 0 8 14 10 7 7 10 12 14 14 11 10 11 12 14 17 15 17 16 16 17 18 15 16 19 20 18 18 19 18 17
5 5 6 3 5 3 5 1 6 4 7 8 8 5 7 2 3 8 6 11 13 10 7 7 9 14 14 14 12 10 11 12 13 14 14 16 16 17 17 17 15 16 18 18 18 18 18 19 17
4 2 4 5 3 4 5 4 5 2 5 4 5 6 4 3 4 8 10 12 13 9 7 8 10 14 13 13 12 11 11 11 11 13 14 14 15 15 16 16 16 17 17 18 17 18 18 18 17
4 6 5 5 4 5 6 7 6 6 4 7 5 7 3 4 8 9 14 13 12 10 7 8 12 14 13 13 12 11 11 11 12 12 12 13 16 16 15 14 18 18 16 16 16 17 17 17 15
5 3 4 2 5 3 2 4 6 6 4 3 3 3 3 2 9 18 15 12 13 9 7 6 10 12 14 13 13 12 12 13 14 12 13 12 14 14 15 15 15 15 15 14 15 16 15 16 15
5 4 4 4 4 1 1 4 7 5 5 4 7 5 4 3 15 14 13 11 11 11 7 6 8 9 12 13 12 12 12 12 13 13 13 13 13 13 15 15 15 14 14 13 13 14 15 16 17
6 4 5 6 5 3 6 7 7 8 7 3 10 5 1 4 8 13 12 11 10 10 9 6 6 7 9 10 11 11 11 11 11 12 11 12 10 11 13 14 14 13 12 12 11 11 13 14 14
6 4 3 6 6 6 4 5 7 9 5 7 7 7 6 6 9 11 11 10 9 9 9 7 6 5 6 6 10 10 11 10 11 11 10 10 10 10 10 10 12 12 11 10 9 9 10 12 13
3 4 2 5 7 5 4 5 2 1 7 3 0 7 7 13 13 12 11 7 8 6 8 7 6 5 6 6 6 9 10 10 9 9 10 7 5 6 7 8 11 11 9 8 8 7 9 10 11
4 4 6 4 5 8 6 6 9 5 4 4 3 5 13 13 14 15 13 13 12 10 8 9 7 6 6 6 5 5 5 4 4 5 6 4 5 5 6 7 11 10 8 7 7 6 6 6 4
3 5 2 3 2 5 10 7 3 10 3 7 10 13 13 10 9 11 10 13 13 14 9 10 10 8 7 6 4 3 3 3 3 5 5 4 4 4 3 3 3 3 4 2 3 3 3 3 2
1 4 2 5 6 5 10 8 6 6 7 9 14 20 16 14 14 13 12 11 10 14 13 12 11 11 9 6 5 5 5 4 4 5 6 4 3 3 4 3 4 3 2 3 2 1 1 2 2
1 3 2 4 6 4 4 5 7 7 1 8 12 11 16 16 14 7 7 6 8 8 11 14 12 10 10 8 6 5 5 5 5 4 5 5 4 4 4 4 3 3 3 3 2 2 2 1 1
1 3 0 3 2 3 3 2 5 5 5 9 16 15 12 15 14 6 7 9 9 8 10 11 13 13 11 9 9 7 5 5 5 5 5 7 5 5 4 4 4 4 3 3 3 3 3 2 0
2 4 2 3 2 1 1 1 6 3 5 12 12 12 10 11 8 16 14 12 11 8 8 10 11 11 12 12 11 8 7 6 6 5 6 8 7 6 6 4 4 5 4 5 3 2 2 2 1
11 3 4 2 4 1 3 9 4 6 9 10 10 9 9 12 14 12 11 11 8 8 11 8 10 9 10 9 8 7 8 7 7 7 6 8 7 7 6 5 5 4 3 4 3 3 3 3 3
2 6 4 4 6 3 3 7 5 2 9 9 9 9 10 9 9 12 14 14 13 13 12 12 11 14 11 8 6 7 7 6 7 7 7 8 7 7 6 5 4 5 4 3 3 2 2 3 3
4 3 4 6 7 3 3 8 6 2 7 11 10 8 8 9 14 14 14 15 15 15 15 15 12 13 12 9 6 4 4 5 6 7 8 9 7 7 6 5 6 5 4 4 3 4 3 3 3
6 6 6 3 3 4 8 7 10 5 4 8 9 9 10 12 14 11 11 14 10 13 15 16 15 14 9 10 8 8 9 6 5 6 9 9 8 8 8 5 5 5 6 6 5 3 5 3 2
6 5 3 2 1 4 2 11 10 5 8 8 10 10 12 8 8 9 10 9 13 16 16 16 16 15 13 10 9 10 9 7 4 5 7 8 10 10 8 7 6 6 4 6 6 5 3 3 4
6 6 6 5 2 1 2 8 6 7 6 6 9 13 10 13 11 10 9 10 9 13 17 16 16 16 14 13 6 2 1 1 3 3 4 5 8 9 9 9 6 6 5 7 7 6 6 3 3
6 7 6 8 6 5 4 7 6 4 8 7 13 14 15 11 7 7 7 7 11 12 7 12 14 14 14 14 11 13 11 11 9 6 5 6 8 8 9 8 9 9 7 7 8 6 5 4 4
9 7 8 5 3 3 2 2 8 4 7 11 11 12 15 12 8 9 9 8 5 7 6 4 4 6 9 11 12 11 11 7 3 3 6 5 6 10 10 10 9 8 7 8 7 6 8 7 5
9 8 8 5 2 2 7 6 6 6 9 7 5 7 9 8 8 8 3 5 4 5 6 5 4 3 5 8 12 12 12 7 6 6 6 5 5 6 8 9 9 10 8 8 8 8 8 8 8
5 8 2 2 2 6 2 3 12 7 10 7 10 8 3 4 5 5 6 3 3 5 4 2 3 4 4 4 5 9 11 11 12 10 8 9 6 4 8 10 9 8 10 9 8 7 8 8 7
7 9 8 9 6 6 4 7 10 8 8 9 5 3 4 6 6 7 6 5 4 4 3 2 2 3 3 7 8 7 8 8 7 8 5 7 6 6 6 8 7 8 8 8 7 5 5 5 5
6 6 7 7 3 4 4 6 12 7 9 2 4 4 7 7 6 7 6 5 6 5 4 4 4 2 0 4 6 6 6 7 7 6 4 4 5 3 5 5 5 5 5 4 4 3 4 4 4
7 9 3 3 5 4 5 5 7 7 8 8 8 9 8 5 7 7 7 6 4 5 4 4 3 3 1 2 3 2 3 4 4 4 5 5 4 4 4 4 4 4 4 5 5 3 2 4 3
4 5 3 5 6 7 3 8 9 11 12 11 11 8 9 9 9 6 6 5 5 4 4 4 4 4 3 2 2 4 4 5 5 5 5 5 5 5 5 5 6 5 5 4 5 5 5 5 3
3 7 9 6 5 3 4 10 6 10 10 8 9 10 8 7 6 5 6 6 5 6 6 6 4 4 4 3 3 3 4 4 4 6 5 5 6 6 6 6 6 6 5 4 5 4 4 3 2
Wind_Direction
329 321 81 40 49 62 292 227 159 117 51 348 63 113 117 72 102 192 66 140 129 134 132 129 128 132 121 117 112 107 97 92 86 93 92 94 85 85 83 79 78 81 84 81 84 80 70 69 74
337 344 41 80 85 57 270 264 158 149 137 129 90 89 56 74 90 118 105 151 133 135 128 129 131 131 128 123 116 112 101 99 89 96 89 93 92 93 92 91 90 93 88 88 87 82 72 76 83
357 40 76 89 109 178 211 175 179 117 156 116 90 56 110 144 104 142 135 147 130 127 127 138 133 138 130 126 117 111 104 96 105 89 95 97 101 102 96 102 99 96 93 90 87 83 77 75 83
33 14 33 85 247 259 193 176 161 131 50 64 115 70 47 224 156 141 138 140 130 130 130 146 139 138 133 128 123 117 112 107 92 92 102 93 95 95 96 93 94 91 95 93 87 82 76 72 75
37 56 76 80 278 277 103 197 160 115 116 109 126 143 51 50 115 135 142 141 134 130 132 142 140 133 139 137 132 128 122 116 106 99 102 95 95 95 93 92 95 97 91 88 81 77 73 67 66
47 92 86 196 264 62 191 218 136 122 139 164 76 98 174 108 138 148 139 140 139 137 133 139 135 136 142 141 136 133 128 124 120 113 106 104 103 110 108 100 93 93 87 83 75 71 71 67 66
114 94 192 167 207 187 205 167 152 146 143 168 146 102 259 152 147 144 135 131 139 139 133 135 141 147 148 140 137 135 131 126 119 118 112 105 100 88 102 105 102 98 95 86 80 70 72 70 62
105 96 151 200 184 223 200 173 153 138 187 125 144 162 186 215 140 135 133 134 140 146 144 146 146 147 139 147 141 139 133 124 123 120 119 116 108 102 101 103 110 107 109 102 95 82 77 74 67
100 67 197 215 164 218 183 143 185 71 113 71 72 155 188 160 128 136 139 137 139 150 155 152 155 153 144 142 149 141 139 138 137 131 129 109 114 106 96 113 111 114 113 107 103 85 64 54 51
100 131 219 221 207 191 179 143 150 111 109 28 39 41 134 148 150 153 161 164 164 165 176 164 162 161 152 156 151 146 144 147 153 151 147 135 136 134 125 108 105 106 104 107 98 70 35 35 52
175 195 226 276 285 205 160 139 139 126 217 200 173 151 158 165 165 163 174 171 174 171 175 172 169 167 166 158 158 152 151 154 167 166 149 141 134 129 113 113 102 113 104 79 77 40 18 38 67
210 259 265 314 330 140 169 125 134 172 213 179 170 161 160 175 185 180 181 181 170 169 177 174 176 173 174 161 172 171 166 169 176 179 170 145 147 151 154 150 150 146 144 144 137 113 114 86 80
164 270 74 307 6 40 126 130 185 219 194 149 138 163 173 181 191 185 187 189 170 167 171 179 179 182 175 173 174 176 183 183 186 174 176 157 164 171 161 176 168 175 167 178 191 183 156 135 73
187 262 113 320 3 46 137 128 147 238 107 138 155 179 185 185 191 172 182 192 189 183 175 178 181 186 178 180 182 182 184 187 187 180 182 174 173 175 177 176 186 190 195 186 185 181 177 198 195
282 233 331 242 264 183 152 318 216 144 141 161 177 186 190 201 192 204 197 201 187 194 187 184 183 175 178 186 184 183 187 183 189 194 184 180 183 182 179 183 189 197 188 188 176 176 171 184 226
195 137 185 249 171 311 108 241 257 188 160 189 189 193 199 205 211 219 209 209 192 189 196 189 200 194 186 184 181 188 192 186 190 185 190 189 188 181 182 188 201 194 185 175 174 175 191 216 214
22 166 174 282 199 132 161 242 243 194 180 191 206 207 210 216 220 219 212 209 204 197 198 202 199 206 202 188 186 191 182 185 185 184 193 197 190 185 183 193 195 173 181 189 172 188 178 200 234
161 147 172 204 217 174 189 256 268 275 189 198 207 228 235 230 231 223 211 210 205 199 199 202 202 203 206 209 200 187 187 193 187 188 195 189 195 191 185 191 184 177 175 185 180 183 201 200 212
173 174 174 231 190 144 209 248 250 253 236 233 234 222 228 230 232 225 205 205 199 200 196 198 199 197 189 205 199 207 214 208 198 204 196 193 189 190 189 194 186 177 194 198 178 170 201 240 210
153 158 216 307 156 139 213 254 251 242 235 210 226 240 239 234 238 239 203 192 192 196 196 198 198 193 193 201 208 216 220 220 211 192 199 195 193 193 197 192 197 188 174 185 194 172 174 204 185
190 171 169 197 155 64 339 287 254 256 236 231 239 232 235 224 226 229 218 200 192 194 200 196 194 195 193 195 175 105 118 174 182 189 201 199 197 197 200 191 186 182 189 213 203 187 186 181 210
195 188 153 145 145 198 149 269 301 261 259 222 239 238 238 227 225 225 227 222 203 209 194 198 191 192 193 185 185 195 202 205 215 202 198 191 191 201 202 207 204 203 198 205 209 192 188 157 210
220 137 143 141 120 90 311 66 273 274 271 252 240 238 236 231 204 219 228 234 196 156 162 168 177 185 187 190 192 193 209 212 172 164 180 203 202 196 198 200 200 203 200 219 202 190 198 207 205
148 89 47 56 83 264 199 170 254 212 221 261 280 256 245 233 215 210 160 137 132 103 109 116 135 172 173 183 197 199 206 189 182 193 197 207 203 203 203 201 200 203 201 206 214 207 204 204 216
128 103 36 3 315 224 159 205 244 251 257 229 258 260 245 172 152 150 151 139 103 101 83 112 162 208 203 203 200 198 202 192 197 199 197 188 198 191 205 197 202 202 206 202 195 200 209 207 207
177 160 157 182 200 221 116 224 250 242 279 242 263 203 154 153 171 168 166 154 118 97 93 42 274 258 211 199 210 213 200 201 198 194 189 202 193 204 209 197 195 200 198 198 191 200 200 177 202
199 196 153 105 32 58 230 289 303 261 264 246 204 163 197 197 183 173 160 159 161 156 151 161 151 123 226 207 194 206 204 194 200 199 194 218 160 178 176 178 181 187 190 194 179 168 175 159 170
194 145 95 0 130 241 255 257 228 265 244 215 209 207 215 196 191 186 175 175 179 157 153 140 145 148 122 93 124 149 173 188 171 148 165 165 116 133 141 132 128 115 116 129 129 125 125 127 118
141 181 150 134 156 178 199 250 217 205 221 199 227 202 201 203 206 190 177 174 164 137 145 155 162 155 162 138 129 126 108 116 118 120 127 121 109 113 109 116 107 104 97 90 97 95 108 108 127
245 185 190 169 220 240 165 245 194 216 222 213 225 203 206 207 193 182 173 167 164 173 179 186 179 177 181 171 138 110 108 110 111 87 84 89 94 88 100 93 92 94 102 101 107 113 120 118 101